Location: Shenandoah County Park
(38.9356°N, 78.4524°W)
Time: 17:50:56
(UTC-05:00)

N. Korean satellite - Pass Details

Date: 01 December 2021
Orbit: 447 x 490 km, 97.3° (Epoch: 26 January)

Event Time Altitude Azimuth Distance (km) Brightness Sun altitude
Rises 05:57:56 0° 1° (N) 2,465 10.0 -14.5°
Reaches altitude 10° 06:00:06 10° 351° (N) 1,584 8.9 -14.1°
Maximum altitude 06:03:09 32° 287° (WNW) 800 7.1 -13.5°
Drops below altitude 10° 06:06:10 10° 223° (SW) 1,567 8.9 -12.9°
Sets 06:08:18 0° 213° (SSW) 2,434 10.0 -12.5°
